PBO Station Position Time Series. Reference Frame : NAM14
Format Version,1.1.0
4-character ID,PABH
Station name,PABH_PNGA_WA1997
Begin Date, 1997-08-31
End Date, 2019-10-07
Release Date, 2019-10-08
Reference position, 47.2127993404 North Latitude, -124.2045822751 East Longitude, 12.90548 meters elevation,
Date, North (mm), East (mm), Vertical (mm), North Std. Deviation (mm), East Std. Deviation (mm),              Vertical Std. Deviation (mm), Quality,
1997-08-31,0.00, 0.00, 0.00, 2.46, 1.79, 8.03, repro,
1997-09-01,0.26, 0.06, 1.22, 2.42, 1.77, 7.83, repro,
1997-09-02,0.61, -0.76, -3.49, 2.40, 1.76, 7.84, repro,
1997-09-03,-0.51, 1.97, 2.43, 2.51, 1.86, 8.08, repro,
1997-09-04,0.44, 1.34, 4.01, 2.53, 1.89, 8.17, repro,
1997-09-05,0.72, 0.32, -1.98, 2.42, 1.77, 7.95, repro,
1997-09-06,0.72, -0.41, -0.62, 2.40, 1.77, 7.94, repro,
1997-09-07,0.05, -0.59, 2.22, 2.42, 1.79, 7.96, repro,
1997-09-08,0.34, -0.63, 3.76, 2.46, 1.83, 8.03, repro,
1997-09-09,-1.64, 0.19, 4.22, 2.44, 1.84, 8.23, repro,
1997-09-10,0.18, -0.25, -1.94, 2.38, 1.77, 7.91, repro,
1997-09-11,1.47, -0.70, -3.44, 2.49, 1.80, 8.32, repro,
1997-09-12,0.25, -0.97, 5.52, 2.49, 1.77, 8.07, repro,
1997-09-13,-1.51, -0.90, 6.06, 2.41, 1.79, 7.95, repro,
1997-09-14,0.50, -2.23, 9.81, 2.48, 1.83, 8.08, repro,
1997-09-15,0.11, -1.19, 10.10, 2.58, 1.95, 8.61, repro,
1997-09-16,-0.42, -0.75, 5.20, 2.39, 1.75, 7.80, repro,
1997-09-17,-0.31, 0.10, 1.38, 2.44, 1.80, 8.11, repro,
1997-09-18,2.16, -1.35, -1.74, 2.43, 1.82, 8.08, repro,
1997-09-19,1.06, -0.29, 2.24, 2.43, 1.76, 7.86, repro,
1997-09-20,0.53, 0.52, -7.22, 2.44, 1.85, 8.09, repro,
1997-09-21,0.08, 1.37, -5.17, 2.41, 1.79, 7.87, repro,
1997-09-22,0.25, 1.26, -4.47, 2.44, 1.81, 8.07, repro,
1997-09-23,0.65, 0.86, -2.76, 2.47, 1.79, 8.04, repro,
1997-09-24,1.00, 0.43, 2.28, 2.40, 1.77, 7.88, repro,
1997-09-25,1.05, -0.89, -2.59, 2.51, 1.89, 8.40, repro,
1997-09-26,-0.52, -0.04, 10.19, 2.51, 1.86, 8.18, repro,
1997-09-27,-0.46, -0.36, 15.85, 2.48, 1.89, 8.45, repro,
1997-09-28,-1.24, -0.35, -2.62, 2.49, 1.79, 8.09, repro,
1997-09-29,1.97, 0.87, 0.90, 2.57, 1.87, 8.33, repro,
1997-09-30,2.66, 0.97, 6.02, 2.48, 1.86, 8.18, repro,
1997-10-01,-1.85, 0.07, 0.68, 2.54, 1.90, 8.35, repro,
1997-10-02,1.57, 0.52, 5.38, 2.45, 1.84, 8.15, repro,
1997-10-03,0.03, -1.35, 3.69, 2.44, 1.81, 8.04, repro,
1997-10-04,-0.94, -0.17, 2.05, 2.55, 1.85, 8.27, repro,
1997-10-05,1.87, 0.68, 5.84, 2.48, 1.86, 8.24, repro,
1997-10-06,1.57, 0.39, 3.90, 2.40, 1.79, 7.93, repro,
1997-10-07,3.59, 0.99, -4.84, 2.46, 1.82, 8.24, repro,
1997-10-08,0.25, -0.66, -0.40, 2.39, 1.77, 7.99, repro,
1997-10-09,-1.32, -2.92, -4.27, 2.42, 1.78, 8.06, repro,
1997-10-10,-0.59, -0.30, 0.45, 2.44, 1.79, 8.14, repro,
1997-10-11,3.49, 1.83, -1.07, 2.47, 1.84, 8.07, repro,
1997-10-12,-0.35, 0.26, -9.65, 2.46, 1.79, 7.97, repro,
1997-10-13,1.71, 0.58, -15.29, 2.51, 1.83, 8.05, repro,
1997-10-14,0.17, 0.97, -6.47, 2.61, 1.95, 8.66, repro,
1997-10-15,-0.75, 0.80, -6.01, 2.52, 1.80, 8.18, repro,
1997-10-16,-0.77, -0.10, -5.45, 2.50, 1.82, 8.30, repro,
1997-10-17,2.02, -0.02, 2.89, 2.74, 1.97, 9.03, repro,
1997-10-18,1.27, 0.81, -8.41, 2.56, 1.85, 8.17, repro,
1997-10-19,2.05, 0.65, -11.69, 2.50, 1.84, 8.12, repro,
1997-10-20,0.29, 0.39, -11.17, 2.70, 1.98, 8.85, repro,
1997-10-21,1.82, 1.70, -6.36, 2.57, 1.88, 8.41, repro,
1997-10-22,1.39, 2.11, -3.71, 2.57, 1.91, 8.55, repro,
1997-10-23,2.18, 1.65, -5.62, 2.57, 1.86, 8.23, repro,
1997-10-24,2.44, -0.18, -8.15, 2.60, 1.87, 8.31, repro,
1997-10-25,2.69, 0.50, -10.55, 2.73, 1.93, 8.70, repro,
1997-10-26,0.70, 0.57, -3.47, 2.56, 1.86, 8.34, repro,
1997-10-27,1.40, -0.93, -7.09, 2.64, 1.92, 8.65, repro,
1997-10-28,0.78, -1.55, -11.09, 2.69, 1.91, 8.68, repro,
1997-10-29,1.16, -0.86, 0.27, 2.69, 1.98, 8.98, repro,
1997-10-30,0.09, -4.32, -7.20, 2.56, 1.93, 8.53, repro,
1997-10-31,0.26, 0.43, -2.46, 2.62, 1.94, 8.62, repro,
1997-11-01,-1.95, 2.13, -8.05, 2.46, 1.81, 8.23, repro,
1997-11-02,1.01, -0.08, -9.45, 2.50, 1.84, 8.60, repro,
1997-11-03,0.10, 1.33, 6.42, 2.64, 1.93, 8.73, repro,
1997-11-04,2.26, 0.49, -12.80, 2.65, 1.95, 8.64, repro,
1997-11-05,1.61, -0.02, -2.64, 2.63, 1.89, 8.48, repro,
1997-11-06,0.32, -0.65, -5.74, 2.89, 2.04, 9.18, repro,
1997-11-07,1.55, -0.14, -10.40, 2.76, 2.00, 8.82, repro,
1997-11-08,0.72, 0.00, -8.26, 2.42, 1.82, 7.98, repro,
1997-11-09,1.08, 1.34, -3.96, 2.60, 1.90, 8.26, repro,
1997-11-10,0.57, -0.00, -3.04, 2.59, 1.96, 8.91, repro,
1997-11-11,0.59, -0.25, 1.69, 2.55, 1.91, 8.62, repro,
1997-11-12,-0.28, -1.04, 2.03, 2.57, 1.85, 8.18, repro,
1997-11-13,0.68, 1.13, 0.64, 2.46, 1.82, 8.15, repro,
1997-11-14,1.29, -0.96, -7.03, 2.61, 1.90, 8.55, repro,
1997-11-15,1.96, 0.52, -8.53, 2.65, 1.91, 8.53, repro,
1997-11-16,4.11, -0.82, -1.77, 2.60, 1.86, 8.35, repro,
1997-11-17,4.47, 0.66, -5.98, 2.79, 2.05, 9.37, repro,
1997-11-18,0.81, 1.67, 9.70, 2.64, 1.99, 9.18, repro,
1997-11-19,4.34, 1.29, 1.38, 2.78, 1.99, 9.18, repro,
1997-11-20,2.94, 0.24, 2.33, 2.85, 2.11, 9.46, repro,
1997-11-21,1.89, 2.37, 2.43, 3.02, 2.09, 9.45, repro,
1997-11-22,-3.31, 1.08, 8.17, 2.80, 1.97, 8.91, repro,
1997-11-23,3.38, 0.19, 4.93, 2.89, 2.01, 9.36, repro,
1997-11-24,0.08, -1.87, 4.76, 3.37, 2.43, 10.91, repro,
1997-12-16,0.07, -0.74, -5.42, 2.61, 1.83, 8.52, repro,
1997-12-17,-1.84, 1.03, 6.33, 2.56, 1.82, 8.54, repro,
1997-12-18,1.55, 1.48, -4.33, 2.58, 1.90, 8.17, repro,
1997-12-19,1.10, 0.27, -7.09, 2.45, 1.84, 7.98, repro,
1997-12-20,-0.24, 1.37, 2.82, 2.41, 1.82, 7.78, repro,
1997-12-21,1.23, -0.42, -5.55, 2.45, 1.80, 8.07, repro,
1997-12-22,-0.84, 0.99, -14.47, 2.44, 1.81, 8.14, repro,
1997-12-23,-0.59, -0.11, -14.46, 2.53, 1.86, 8.29, repro,
1997-12-24,-0.55, -0.24, -2.50, 2.48, 1.87, 8.38, repro,
1997-12-25,0.10, 1.43, -6.44, 2.65, 1.89, 8.43, repro,
1997-12-26,1.84, 1.09, -7.50, 2.54, 1.85, 8.02, repro,
1997-12-27,0.60, 1.45, -9.51, 2.43, 1.78, 7.97, repro,
1997-12-28,2.08, 3.17, -14.58, 2.56, 1.92, 8.50, repro,
1997-12-29,2.74, 1.09, -9.67, 2.52, 1.92, 8.46, repro,
1997-12-30,2.66, 2.13, -11.07, 2.67, 2.08, 9.18, repro,
1997-12-31,1.53, 0.89, -11.76, 2.43, 1.82, 7.96, repro,
1998-01-01,3.40, 1.56, -11.15, 2.52, 1.83, 8.10, repro,
1998-01-02,0.96, 0.79, -4.99, 2.64, 1.92, 8.65, repro,
1998-01-03,1.40, -0.60, -1.43, 2.47, 1.81, 8.18, repro,
1998-01-04,1.29, 0.22, -12.09, 2.43, 1.78, 7.95, repro,
1998-01-05,1.10, 0.15, -10.75, 2.52, 1.90, 8.48, repro,
1998-01-06,-0.04, -0.08, -13.79, 2.51, 1.93, 8.48, repro,
1998-01-07,2.33, 0.51, -16.10, 2.63, 2.03, 9.00, repro,
1998-01-08,1.89, 1.14, -15.53, 2.66, 2.03, 9.12, repro,
1998-01-09,1.49, 0.75, -15.54, 2.50, 1.89, 8.40, repro,
1998-01-10,4.06, 1.36, -11.54, 2.53, 1.89, 8.32, repro,
1998-01-11,3.39, 1.81, -14.26, 2.51, 1.89, 8.36, repro,
1998-01-12,6.05, 1.55, -18.19, 2.62, 1.96, 8.73, repro,
1998-01-13,2.71, -0.62, -15.32, 2.56, 2.00, 8.76, repro,
1998-01-14,1.21, 0.69, -11.15, 2.47, 1.83, 8.23, repro,
1998-01-15,0.65, 0.62, -8.01, 2.51, 1.91, 8.43, repro,
1998-01-16,1.51, 0.81, -4.60, 2.67, 2.08, 9.21, repro,
1998-01-17,0.31, -0.12, -4.46, 2.45, 1.84, 8.11, repro,
1998-01-18,2.00, 0.61, -9.63, 2.52, 1.88, 8.39, repro,
1998-01-19,1.63, 0.32, -15.19, 2.43, 1.82, 7.99, repro,
1998-01-20,-0.48, 0.87, -10.17, 2.43, 1.81, 7.99, repro,
1998-01-21,1.13, 2.57, -11.15, 2.54, 1.89, 8.30, repro,
1998-01-22,1.28, 0.92, -10.04, 2.53, 1.88, 8.22, repro,
1998-01-23,1.49, 0.55, -9.74, 2.55, 1.88, 8.43, repro,
1998-01-24,-0.68, 1.61, -9.59, 2.48, 1.81, 8.05, repro,
1998-01-25,0.30, 1.25, -5.02, 2.42, 1.80, 7.93, repro,
1998-01-26,-0.73, 0.76, -11.97, 2.42, 1.79, 7.93, repro,
1998-01-27,0.48, 1.76, -7.32, 2.46, 1.81, 8.05, repro,
1998-01-28,0.92, 1.47, -7.37, 2.45, 1.80, 8.02, repro,
1998-01-29,1.10, 0.12, -13.34, 2.42, 1.77, 7.87, repro,
1998-01-30,0.96, 1.90, -14.10, 2.41, 1.80, 8.01, repro,
1998-01-31,0.52, 2.21, -11.05, 2.38, 1.78, 7.75, repro,
1998-02-01,-0.10, 1.57, -7.70, 2.47, 1.84, 8.02, repro,
1998-02-02,0.35, 0.87, -2.22, 2.34, 1.74, 7.66, repro,
1998-02-03,2.09, 0.08, -7.63, 2.30, 1.71, 7.50, repro,
1998-02-04,0.68, -0.92, -10.93, 2.38, 1.75, 7.75, repro,
1998-02-05,1.37, 1.69, -8.19, 2.55, 1.90, 8.26, repro,
1998-02-06,-0.12, 1.01, -8.55, 2.32, 1.73, 7.60, repro,
1998-02-07,0.74, 0.55, -14.23, 2.38, 1.75, 7.71, repro,
1998-02-08,-0.68, -0.73, -7.52, 2.50, 1.85, 8.28, repro,
1998-02-09,-0.56, -0.91, -5.22, 2.47, 1.81, 8.07, repro,
1998-02-10,0.21, 0.74, -10.89, 2.37, 1.75, 7.72, repro,
1998-02-11,0.56, 0.24, -24.60, 2.52, 1.87, 8.40, repro,
1998-02-12,0.23, -0.49, -4.54, 2.40, 1.78, 7.88, repro,
1998-02-13,1.61, 2.28, -14.53, 2.38, 1.78, 7.79, repro,
1998-02-14,-0.21, 2.48, -8.85, 2.48, 1.81, 8.11, repro,
1998-02-15,1.07, -1.31, -9.63, 2.42, 1.81, 7.97, repro,
1998-02-16,0.92, 1.99, -6.72, 2.38, 1.80, 7.84, repro,
1998-02-17,0.18, 2.28, -5.43, 2.63, 1.89, 8.43, repro,
1998-02-18,-1.61, 0.59, -15.29, 2.58, 1.93, 8.38, repro,
1998-02-19,0.49, 1.24, 0.64, 2.43, 1.82, 8.09, repro,
1998-02-20,0.52, 0.74, -6.26, 2.60, 1.95, 8.61, repro,
1998-02-21,-0.90, 0.79, -8.51, 2.37, 1.81, 7.96, repro,
1998-02-22,-0.87, 2.52, -12.11, 2.44, 1.83, 8.02, repro,
1998-02-23,-1.38, 0.31, -9.95, 2.37, 1.77, 7.81, repro,
1998-02-24,-0.54, 0.87, -7.24, 2.38, 1.77, 7.83, repro,
1998-02-25,0.78, 0.18, 4.58, 2.41, 1.81, 7.99, repro,
1998-02-26,-1.41, 0.73, -7.84, 2.47, 1.91, 8.46, repro,
1998-02-27,0.26, 2.33, -17.83, 2.35, 1.82, 7.91, repro,
1998-02-28,1.44, 1.90, -8.49, 2.42, 1.84, 8.19, repro,
1998-03-01,-0.03, 3.39, -14.00, 2.52, 1.88, 8.23, repro,
1998-03-02,0.20, 1.86, -4.94, 2.33, 1.76, 7.66, repro,
1998-03-03,0.92, 1.20, -10.13, 2.52, 1.88, 8.30, repro,
1998-03-04,0.92, 1.22, -8.28, 2.28, 1.69, 7.54, repro,
1998-03-05,0.49, 1.87, -11.90, 2.29, 1.71, 7.62, repro,
1998-03-06,0.18, 1.64, -7.78, 2.29, 1.72, 7.59, repro,
1998-03-07,-0.20, 1.55, -9.10, 2.38, 1.78, 7.91, repro,
1998-03-08,0.41, 1.42, -9.50, 2.40, 1.82, 7.98, repro,
1998-03-09,0.48, 1.35, -11.69, 2.33, 1.75, 7.73, repro,
1998-03-10,0.53, 2.89, -14.16, 2.38, 1.80, 7.90, repro,
1998-03-11,-1.24, 3.27, -8.51, 2.38, 1.80, 7.82, repro,
1998-03-12,0.71, 1.54, -11.56, 2.40, 1.81, 7.99, repro,
1998-03-13,1.50, 1.76, -16.19, 2.41, 1.79, 7.90, repro,
1998-03-14,-0.51, 1.71, -15.56, 2.40, 1.80, 7.90, repro,
1998-03-15,0.67, 2.35, -10.90, 2.39, 1.80, 7.82, repro,
1998-03-16,-1.40, 2.16, -15.41, 2.32, 1.78, 7.74, repro,
1998-03-17,0.31, 2.34, -10.70, 2.30, 1.78, 7.78, repro,
1998-03-18,0.14, 2.81, -10.33, 2.32, 1.75, 7.65, repro,
1998-03-19,1.47, 1.86, -4.90, 2.32, 1.74, 7.62, repro,
1998-03-20,0.82, 1.97, -13.12, 2.37, 1.81, 7.86, repro,
1998-03-21,0.17, 1.57, -8.15, 2.30, 1.73, 7.62, repro,
1998-03-22,0.40, 1.92, -6.41, 2.29, 1.76, 7.64, repro,
1998-03-23,-0.82, 1.18, -6.53, 2.43, 1.85, 8.07, repro,
1998-03-24,0.82, 1.57, -5.27, 2.41, 1.83, 8.00, repro,
1998-03-25,1.20, -0.07, -6.88, 2.31, 1.75, 7.67, repro,
1998-03-26,0.27, 0.84, -6.35, 2.39, 1.79, 7.82, repro,
1998-03-27,-1.38, -0.80, 5.85, 2.36, 1.77, 7.80, repro,
1998-03-28,-1.11, 2.56, -2.73, 2.34, 1.77, 7.67, repro,
1998-03-29,1.12, 1.84, -9.22, 2.38, 1.79, 7.74, repro,
1998-03-30,1.75, 2.02, -7.48, 2.40, 1.81, 7.91, repro,
1998-03-31,1.10, 1.85, -6.30, 2.65, 2.02, 8.82, repro,
1998-04-01,-0.62, 1.11, -9.13, 2.41, 1.81, 7.87, repro,
1998-04-02,-1.33, 2.64, -6.38, 2.41, 1.86, 8.03, repro,
1998-04-03,0.74, 1.19, -9.63, 2.55, 1.96, 8.42, repro,
1998-04-04,0.05, 2.09, -1.52, 2.41, 1.81, 7.91, repro,
1998-04-05,-0.94, 0.29, -3.71, 2.37, 1.78, 7.83, repro,
1998-04-06,0.59, 2.12, -5.13, 2.50, 1.89, 8.17, repro,
1998-04-07,-0.33, 2.13, -11.43, 2.43, 1.86, 8.02, repro,
1998-04-08,-0.13, 1.92, -10.19, 2.44, 1.87, 8.14, repro,
1998-04-09,1.54, 0.33, -10.41, 2.37, 1.83, 7.92, repro,
1998-04-10,1.59, 1.14, -11.13, 2.42, 1.83, 7.95, repro,
1998-04-11,1.16, 0.73, -16.12, 2.51, 1.93, 8.43, repro,
1998-04-12,-0.11, 0.44, -8.60, 2.42, 1.83, 8.04, repro,
1998-04-13,-1.00, 1.61, -14.63, 2.35, 1.78, 7.73, repro,
1998-04-14,1.46, 1.91, -13.87, 2.30, 1.71, 7.64, repro,
1998-04-15,2.08, 1.46, -9.95, 2.44, 1.80, 7.90, repro,
1998-04-16,0.88, 0.72, -12.88, 2.53, 1.94, 8.43, repro,
1998-04-17,1.11, 2.53, -7.92, 2.56, 1.93, 8.48, repro,
1998-04-18,1.19, 2.88, -8.05, 2.31, 1.74, 7.70, repro,
1998-04-19,0.09, 1.05, -11.10, 2.29, 1.72, 7.59, repro,
1998-04-20,0.84, 1.12, -6.30, 2.27, 1.73, 7.67, repro,
1998-04-21,1.68, 1.49, -8.94, 2.40, 1.76, 7.77, repro,
1998-04-22,0.98, 1.34, -5.45, 2.43, 1.82, 7.81, repro,
1998-04-23,0.51, 0.82, -2.40, 2.28, 1.71, 7.59, repro,
1998-04-24,0.49, 0.86, -3.23, 2.28, 1.70, 7.55, repro,
1998-04-25,0.85, 1.77, -0.24, 2.26, 1.70, 7.50, repro,
1998-04-26,1.76, 1.86, -9.42, 2.27, 1.72, 7.59, repro,
1998-04-27,0.76, 0.82, -10.56, 2.35, 1.75, 7.73, repro,
1998-04-28,0.99, 0.65, -4.99, 2.27, 1.75, 7.71, repro,
1998-04-29,2.25, 2.14, -0.43, 2.35, 1.74, 7.62, repro,
1998-04-30,0.83, 1.30, -7.71, 2.26, 1.68, 7.51, repro,
1998-05-01,1.04, 1.77, -4.68, 2.28, 1.72, 7.66, repro,
1998-05-02,-0.17, 0.60, 4.59, 2.32, 1.73, 7.74, repro,
1998-05-03,-0.40, 1.59, 0.02, 2.33, 1.73, 7.69, repro,
1998-05-04,-0.58, -0.16, 1.79, 2.42, 1.78, 8.10, repro,
1998-05-05,0.29, 0.62, 1.31, 2.31, 1.71, 7.65, repro,
1998-05-06,-0.86, -0.27, 6.02, 2.36, 1.77, 7.90, repro,
1998-05-07,1.13, 0.23, -1.94, 2.38, 1.80, 7.95, repro,
1998-05-08,0.74, 1.28, 3.58, 2.32, 1.74, 7.76, repro,
1998-05-09,0.98, 0.81, 2.35, 2.26, 1.70, 7.58, repro,
1998-05-10,0.35, 0.88, 4.79, 2.29, 1.70, 7.59, repro,
1998-05-11,0.68, -0.02, 3.69, 2.26, 1.72, 7.65, repro,
1998-05-12,-0.50, 0.33, 7.86, 2.26, 1.71, 7.54, repro,
1998-05-13,0.25, 0.28, 4.07, 2.26, 1.71, 7.60, repro,
1998-05-14,-0.44, 1.20, 3.12, 2.26, 1.71, 7.61, repro,
1998-05-15,1.39, 0.94, -3.66, 2.31, 1.72, 7.69, repro,
1998-05-16,1.22, 0.63, -1.28, 2.28, 1.72, 7.66, repro,
1998-05-17,2.13, 1.11, 2.31, 2.28, 1.72, 7.61, repro,
1998-05-18,0.98, 1.31, -0.39, 2.30, 1.75, 7.84, repro,
1998-05-19,0.93, 1.93, -4.02, 2.29, 1.71, 7.63, repro,
1998-05-20,0.60, 0.92, -0.21, 2.28, 1.71, 7.65, repro,
1998-05-21,1.74, 1.12, 1.72, 2.27, 1.70, 7.61, repro,
1998-05-22,1.35, 0.24, -2.26, 2.33, 1.73, 7.69, repro,
1998-05-23,3.04, 1.43, -1.94, 2.38, 1.80, 7.98, repro,
1998-05-24,0.60, 0.43, -3.72, 2.31, 1.71, 7.62, repro,
1998-05-25,0.13, -0.23, -3.58, 2.31, 1.71, 7.65, repro,
1998-05-26,0.10, 0.50, -3.00, 2.41, 1.78, 8.02, repro,
1998-05-27,0.08, -0.21, -1.28, 2.38, 1.76, 7.89, repro,
1998-05-28,1.86, 1.50, -1.87, 2.33, 1.74, 7.72, repro,
1998-05-29,1.42, 1.93, -7.92, 2.33, 1.74, 7.70, repro,
1998-05-30,0.12, 0.71, -2.48, 2.34, 1.74, 7.69, repro,
1998-05-31,0.30, 1.45, -2.43, 2.28, 1.72, 7.63, repro,
1998-06-01,0.27, 1.82, -1.85, 2.30, 1.72, 7.62, repro,
1998-06-02,1.12, 1.47, -2.61, 2.33, 1.76, 7.78, repro,
1998-06-03,2.53, 1.94, -3.30, 2.35, 1.76, 7.73, repro,
1998-06-04,0.23, 0.99, 2.81, 2.31, 1.73, 7.66, repro,
1998-06-05,-1.19, 1.68, -3.59, 2.30, 1.77, 7.78, repro,
1998-06-06,0.04, 1.63, -8.70, 2.28, 1.71, 7.58, repro,
1998-06-07,0.25, 1.91, -5.91, 2.29, 1.72, 7.64, repro,
1998-06-08,1.82, 0.75, 2.99, 2.28, 1.72, 7.60, repro,
1998-06-09,0.84, 1.49, 5.22, 2.31, 1.73, 7.63, repro,
1998-06-10,-0.69, 1.08, 1.99, 2.38, 1.79, 7.81, repro,
1998-06-11,-1.41, 1.53, 3.32, 2.27, 1.71, 7.57, repro,
1998-06-12,-0.44, 1.44, 5.62, 2.31, 1.72, 7.66, repro,
1998-06-13,-0.33, 1.51, 0.37, 2.29, 1.73, 7.63, repro,
1998-06-14,1.26, 1.16, 3.01, 2.29, 1.71, 7.61, repro,
1998-06-15,-1.73, 1.91, 1.96, 2.33, 1.78, 7.84, repro,
1998-06-16,0.63, 0.65, 1.87, 2.33, 1.80, 8.00, repro,
1998-06-17,-0.66, 1.66, -1.41, 2.28, 1.71, 7.56, repro,
1998-06-18,-0.76, 1.33, -0.55, 2.29, 1.72, 7.60, repro,
1998-06-19,-0.53, 1.09, -1.27, 2.32, 1.71, 7.57, repro,
1998-06-20,0.56, 1.45, -5.52, 2.30, 1.73, 7.60, repro,
1998-06-21,-0.11, 1.65, 3.59, 2.30, 1.73, 7.61, repro,
1998-06-22,-0.35, 0.96, -4.04, 2.35, 1.76, 7.82, repro,
1998-06-23,-1.89, 0.42, 3.47, 2.37, 1.76, 7.88, repro,
1998-06-24,-0.04, 0.19, 9.50, 2.37, 1.77, 7.81, repro,
1998-06-25,-0.82, -0.21, 2.00, 2.45, 1.79, 7.91, repro,
1998-06-26,-0.15, 0.46, 6.64, 2.34, 1.80, 7.83, repro,
1998-06-27,0.25, 1.87, -0.09, 2.32, 1.79, 7.80, repro,
1998-06-28,-0.50, 0.06, 1.74, 2.27, 1.72, 7.50, repro,
1998-06-29,-1.08, 0.71, -5.23, 2.36, 1.79, 7.82, repro,
1998-06-30,-0.52, -0.14, -1.50, 2.29, 1.75, 7.68, repro,
1998-07-01,0.29, 1.16, -3.55, 2.37, 1.77, 7.89, repro,
1998-07-02,0.04, 1.18, -0.11, 2.28, 1.73, 7.61, repro,
1998-07-03,0.12, -0.07, -0.10, 2.28, 1.72, 7.62, repro,
1998-07-04,-0.49, -0.12, 5.03, 2.30, 1.73, 7.63, repro,
1998-07-05,-1.43, 1.12, 0.10, 2.30, 1.73, 7.62, repro,
1998-07-06,-1.03, 0.48, 1.12, 2.38, 1.76, 7.92, repro,
1998-07-07,-0.09, 1.46, -3.88, 2.36, 1.74, 7.80, repro,
1998-07-08,-1.42, 0.93, -0.10, 2.34, 1.74, 7.75, repro,
1998-07-09,1.04, 1.09, -0.22, 2.34, 1.76, 7.78, repro,
1998-07-10,-0.73, 1.39, 5.01, 2.35, 1.79, 7.86, repro,
1998-07-11,-1.13, 0.80, 4.82, 2.34, 1.75, 7.73, repro,
1998-07-12,-1.22, 1.48, -4.83, 2.29, 1.74, 7.73, repro,
1998-07-13,-1.97, -0.01, 1.92, 2.31, 1.71, 7.66, repro,
1998-07-14,-1.77, 0.32, 0.19, 2.27, 1.72, 7.64, repro,
1998-07-15,-0.51, 0.79, -3.05, 2.30, 1.74, 7.67, repro,
1998-07-16,-0.47, 0.58, 4.72, 2.31, 1.75, 7.69, repro,
1998-07-17,-0.44, 0.59, 2.46, 2.29, 1.72, 7.58, repro,
1998-07-18,-0.67, 1.30, 0.20, 2.30, 1.72, 7.62, repro,
1998-07-19,-2.10, 0.66, 8.41, 2.27, 1.70, 7.58, repro,
1998-07-20,-0.07, 1.75, 2.92, 2.37, 1.75, 7.85, repro,
1998-07-21,1.10, 0.94, 4.96, 2.29, 1.71, 7.60, repro,
1998-07-22,1.42, -0.05, 2.95, 2.42, 1.79, 8.03, repro,
1998-07-23,0.60, 2.57, 5.20, 2.46, 1.80, 8.17, repro,
1998-07-24,-0.84, 1.39, 7.20, 2.34, 1.74, 7.80, repro,
1998-07-25,0.46, 0.66, -2.90, 2.34, 1.74, 7.81, repro,
1998-07-26,1.02, -0.36, -10.57, 2.27, 1.70, 7.56, repro,
1998-07-27,3.88, 0.20, -0.30, 2.39, 1.75, 8.02, repro,
1998-07-28,0.12, -0.48, 2.09, 2.30, 1.75, 7.77, repro,
1998-07-29,0.26, 1.38, -3.40, 2.29, 1.70, 7.62, repro,
1998-07-30,-0.98, -0.78, 4.08, 2.30, 1.74, 7.71, repro,
1998-07-31,-0.03, -0.43, 2.10, 2.41, 1.80, 8.13, repro,
1998-08-01,1.64, -0.36, -0.79, 2.31, 1.77, 7.80, repro,
1998-08-02,1.49, 0.89, 0.08, 2.32, 1.72, 7.75, repro,
1998-08-03,-0.58, 1.01, -1.41, 2.29, 1.74, 7.66, repro,
1998-08-04,0.01, 0.80, -3.49, 2.34, 1.78, 7.86, repro,
1998-08-05,-0.22, 0.88, 6.15, 3.36, 2.68, 11.65, repro,
1998-08-06,-0.28, 0.52, 3.66, 2.33, 1.72, 7.60, repro,
1998-08-07,-0.58, -0.17, 2.87, 2.28, 1.71, 7.60, repro,
1998-08-08,-0.48, -0.02, 9.88, 2.27, 1.70, 7.55, repro,
1998-08-09,-1.61, 0.96, 8.73, 2.30, 1.74, 7.69, repro,
1998-08-10,-0.51, -0.57, 4.86, 2.30, 1.74, 7.65, repro,
1998-08-11,-0.77, 0.41, 3.22, 2.29, 1.74, 7.72, repro,
1998-08-12,1.55, 0.37, 9.76, 2.27, 1.72, 7.63, repro,
1998-08-13,1.50, 0.47, -13.70, 2.26, 1.71, 7.56, repro,
1998-08-14,-1.00, -0.66, -3.45, 2.28, 1.73, 7.61, repro,
1998-08-15,-0.67, 0.80, 10.45, 2.28, 1.73, 7.62, repro,
1998-08-16,0.31, -0.43, 3.95, 2.41, 1.81, 7.96, repro,
1998-08-17,1.19, -0.45, -2.74, 2.34, 1.72, 7.64, repro,
1998-08-18,0.41, 0.97, 2.65, 2.28, 1.73, 7.59, repro,
1998-08-19,0.53, -0.19, 1.52, 2.28, 1.72, 7.59, repro,
1998-08-20,0.03, 0.30, -1.08, 2.28, 1.73, 7.63, repro,
1998-08-21,-0.86, 0.86, -1.77, 2.28, 1.72, 7.62, repro,
1998-08-22,-0.59, 1.06, -7.40, 2.33, 1.77, 7.75, repro,
1998-08-23,-1.29, 0.65, 4.93, 2.25, 1.71, 7.46, repro,
1998-08-24,-0.25, 0.57, 4.59, 2.27, 1.72, 7.53, repro,
1998-08-25,-0.08, -0.70, -1.90, 2.32, 1.73, 7.60, repro,
1998-08-26,-0.21, -0.47, 3.30, 3.23, 2.45, 11.20, repro,
1998-08-27,-1.77, 1.42, 1.49, 2.39, 1.78, 7.89, repro,
1998-08-28,-1.31, 0.42, 7.48, 3.26, 2.38, 10.93, repro,
1998-08-29,-0.32, 0.90, -0.61, 2.29, 1.73, 7.57, repro,
1998-08-30,-1.36, 1.18, 7.77, 2.29, 1.72, 7.53, repro,
1998-08-31,-1.23, -0.05, 5.87, 2.28, 1.72, 7.57, repro,
1998-09-01,0.24, -0.49, 13.79, 3.28, 2.46, 10.98, repro,
1998-09-02,-1.23, 0.19, 5.69, 2.28, 1.74, 7.63, repro,
1998-09-03,-0.26, 0.38, 4.43, 2.28, 1.73, 7.59, repro,
1998-09-04,0.30, -1.01, 6.33, 2.33, 1.78, 7.80, repro,
1998-09-05,0.26, -0.67, 1.70, 2.30, 1.76, 7.65, repro,
1998-09-06,0.63, 0.42, -0.42, 2.30, 1.72, 7.65, repro,
1998-09-07,0.16, 0.54, 6.73, 2.34, 1.77, 7.90, repro,
1998-09-08,-0.67, 1.18, 6.11, 2.34, 1.77, 7.78, repro,
1998-09-09,-1.03, 0.77, 11.85, 2.32, 1.75, 7.76, repro,
1998-09-10,-1.09, 0.04, 13.80, 2.27, 1.72, 7.55, repro,
1998-09-11,0.28, -0.08, 4.23, 2.35, 1.72, 7.61, repro,
1998-09-12,-0.32, -0.08, 3.26, 2.27, 1.69, 7.53, repro,
1998-09-13,-1.66, 0.19, -0.22, 2.26, 1.69, 7.51, repro,
1998-09-14,-0.98, 0.49, 8.07, 2.51, 1.89, 8.12, repro,
1998-09-15,-0.48, -0.97, 8.22, 2.32, 1.77, 7.57, repro,
1998-09-16,-0.73, -0.50, 14.67, 2.37, 1.81, 7.83, repro,
1998-09-17,0.27, -0.30, 1.86, 2.42, 1.85, 7.98, repro,
1998-09-18,0.23, -1.17, 2.80, 2.53, 1.93, 8.25, repro,
1998-09-19,-0.79, 0.70, 0.95, 2.38, 1.79, 7.70, repro,
1998-09-20,-0.65, 0.76, 7.53, 2.34, 1.79, 7.65, repro,
1998-09-21,-0.44, 0.13, 6.04, 2.34, 1.82, 7.75, repro,
1998-09-22,-0.33, -0.31, 3.12, 2.43, 1.85, 8.10, repro,
1998-09-23,0.42, -0.74, -3.02, 2.63, 1.94, 8.44, repro,
1998-09-24,-0.44, -1.22, 3.66, 2.54, 1.90, 8.12, repro,
1998-09-25,-0.40, -1.82, 5.43, 2.70, 1.92, 8.73, repro,
1998-09-26,-1.16, 0.26, 4.79, 2.66, 1.95, 8.28, repro,
1998-09-27,1.11, 0.96, 3.40, 2.55, 1.90, 8.13, repro,
1998-09-28,0.07, 0.04, 5.03, 2.46, 1.85, 7.81, repro,
1998-09-29,-0.06, -0.95, -0.30, 2.39, 1.80, 7.76, repro,
1998-09-30,-1.73, -1.20, -0.39, 2.40, 1.79, 7.75, repro,
1998-10-01,-3.14, 0.45, 3.49, 2.37, 1.77, 7.72, repro,
1998-10-02,-0.38, 0.69, -4.72, 2.35, 1.77, 7.74, repro,
1998-10-03,-1.43, 1.18, 0.12, 2.78, 2.12, 9.04, repro,
1998-10-04,-1.45, 0.19, -4.11, 2.59, 1.93, 8.33, repro,
1998-10-05,-1.79, -0.70, 1.53, 2.48, 1.88, 8.10, repro,
1998-10-06,-1.08, -0.49, 7.30, 2.56, 1.93, 8.37, repro,
1998-10-07,-1.08, -0.25, 6.89, 2.53, 1.91, 8.10, repro,
1998-10-08,-2.37, -0.14, 8.51, 2.53, 1.92, 8.18, repro,
1998-10-09,2.21, 0.82, -1.23, 2.58, 1.95, 8.24, repro,
1998-10-10,2.08, 2.19, -9.81, 2.49, 1.93, 8.18, repro,
1998-10-11,-0.56, -0.38, -3.99, 2.48, 1.90, 8.05, repro,
1998-10-12,-1.22, -0.51, -1.20, 2.59, 2.01, 8.37, repro,
1998-10-13,-0.06, 1.10, 0.29, 2.52, 1.93, 8.15, repro,
1998-10-14,-0.14, 0.74, 5.47, 2.52, 1.91, 8.14, repro,
1998-10-15,0.28, 0.83, 1.16, 2.47, 1.84, 7.84, repro,
1998-10-16,-0.46, 0.99, -8.41, 2.63, 2.03, 8.63, repro,
1998-10-17,-1.73, 1.34, -5.67, 2.63, 1.99, 8.50, repro,
1998-10-18,-0.85, 1.10, -6.64, 2.63, 2.03, 8.54, repro,
1998-10-19,-0.01, 0.77, -12.39, 2.73, 2.05, 8.97, repro,
1998-10-20,-0.30, 1.54, -6.02, 2.48, 1.88, 8.07, repro,
1998-10-21,1.03, 0.51, -3.43, 2.47, 1.90, 8.09, repro,
1998-10-22,-0.01, -0.70, -2.59, 2.46, 1.92, 8.15, repro,
1998-10-23,0.74, 1.87, -8.11, 2.57, 1.97, 8.53, repro,
1998-10-24,-1.44, 1.04, -2.25, 2.63, 2.08, 8.89, repro,
1998-10-25,2.20, 1.51, -5.64, 2.36, 1.83, 7.78, repro,
1998-10-26,-0.62, 1.57, 3.57, 2.51, 1.96, 8.12, repro,
1998-10-27,0.43, 1.33, -9.20, 2.48, 1.91, 8.07, repro,
1998-10-28,2.10, -0.86, -1.16, 2.57, 2.05, 8.76, repro,
1998-10-29,0.01, 0.90, 4.90, 2.42, 1.88, 8.06, repro,
1998-10-30,0.86, 0.82, 2.08, 2.38, 1.85, 7.93, repro,
1998-10-31,0.68, -0.46, -5.00, 2.34, 1.78, 7.71, repro,
1998-11-01,1.07, 0.99, -8.49, 2.50, 1.92, 8.18, repro,
1998-11-02,1.45, 0.08, -0.71, 2.51, 1.89, 8.21, repro,
1998-11-03,0.58, -0.77, -6.39, 2.62, 2.01, 8.64, repro,
1998-11-04,-2.58, 1.75, 0.35, 2.44, 1.96, 8.55, repro,
1998-11-05,0.44, -0.01, 5.24, 2.48, 1.99, 8.58, repro,
1998-11-06,0.50, 2.27, -2.68, 2.42, 1.87, 8.01, repro,
1998-11-07,1.19, 0.37, -3.43, 2.44, 1.89, 8.25, repro,
1998-11-08,0.46, 1.61, 0.40, 2.45, 1.91, 8.25, repro,
1998-11-09,0.07, -0.92, -4.73, 2.37, 1.83, 8.01, repro,
1998-11-10,-0.14, 0.33, -6.54, 2.35, 1.80, 7.84, repro,
1998-11-11,-0.13, 0.13, -0.86, 2.45, 1.89, 8.34, repro,
1998-11-12,0.79, 0.33, -2.00, 2.41, 1.79, 7.85, repro,
1998-11-13,0.19, 1.18, 8.56, 2.58, 1.93, 8.65, repro,
1998-11-14,-0.71, 1.40, -6.56, 2.53, 1.87, 8.18, repro,
1998-11-15,0.65, 0.22, 5.86, 2.38, 1.79, 7.91, repro,
1998-11-16,1.46, -1.28, 0.23, 2.39, 1.78, 7.87, repro,
1998-11-17,1.60, 0.60, -3.67, 2.44, 1.80, 8.11, repro,
1998-11-18,1.98, 1.73, -2.74, 2.39, 1.75, 7.81, repro,